This is the latest recevied weather packets stored in our database for station/object WY7EM. If no packets are shown the sender has not sent any weather packets the latest 10 day(s).
| Time | Temp. | Humidity | Pressure | Rain* | Wind** | Luminosity | Snow |
|---|---|---|---|---|---|---|---|
| 1777415858 | 21.11° C | 19% | 1015.2 hPa | 0 mm | - | 566 W/m² | - |
| 1777415553 | 22.22° C | 19% | 1015.1 hPa | 0 mm | - | 578 W/m² | - |
| 1777415249 | 21.11° C | 20% | 1015.4 hPa | 0 mm | - | 590 W/m² | - |
| 1777414945 | 21.11° C | 19% | 1015.3 hPa | 0 mm | - | 605 W/m² | - |
| 1777414644 | 20.56° C | 20% | 1015.3 hPa | 0 mm | - | 618 W/m² | - |
| 1777414339 | 21.11° C | 20% | 1015.5 hPa | 0 mm | - | 632 W/m² | - |
| 1777414034 | 20.56° C | 20% | 1015.6 hPa | 0 mm | - | 646 W/m² | - |
| 1777413729 | 21.11° C | 20% | 1015.6 hPa | 0 mm | - | 660 W/m² | - |
| 1777413425 | 21.67° C | 19% | 1015.4 hPa | 0 mm | - | 674 W/m² | - |
| 1777413121 | 21.67° C | 19% | 1015.8 hPa | 0 mm | - | 687 W/m² | - |
| 1777412817 | 21.11° C | 20% | 1015.7 hPa | 0 mm | - | 704 W/m² | - |
| 1777412516 | 21.11° C | 20% | 1016 hPa | 0 mm | - | 716 W/m² | - |
| 1777412214 | 20.56° C | 21% | 1016.1 hPa | 0 mm | - | 734 W/m² | - |
| 1777411910 | 21.11° C | 20% | 1016.1 hPa | 0 mm | - | 745 W/m² | - |
| 1777411609 | 21.11° C | 20% | 1016.2 hPa | 0 mm | - | 752 W/m² | - |
| 1777411304 | 20.56° C | 21% | 1016.3 hPa | 0 mm | - | 763 W/m² | - |
| 1777411003 | 20° C | 20% | 1016.4 hPa | 0 mm | - | 775 W/m² | - |
| 1777410703 | 19.44° C | 21% | 1016.5 hPa | 0 mm | - | 787 W/m² | - |
| 1777410398 | 20.56° C | 21% | 1016.6 hPa | 0 mm | - | 792 W/m² | - |
| 1777410096 | 20° C | 21% | 1016.6 hPa | 0 mm | - | 800 W/m² | - |
| 1777409792 | 20° C | 21% | 1016.8 hPa | 0 mm | - | 813 W/m² | - |
| 1777409488 | 20° C | 21% | 1016.6 hPa | 0 mm | - | 821 W/m² | - |
| 1777409184 | 20° C | 22% | 1016.8 hPa | 0 mm | - | 828 W/m² | - |
| 1777408880 | 20° C | 22% | 1016.6 hPa | 0 mm | - | 833 W/m² | - |
| 1777408576 | 20° C | 22% | 1016.9 hPa | 0 mm | - | 842 W/m² | - |
* Rain latest hour (hover to see other rain measurements)
** Current wind speed in m/s (hover to see current wind gust speed)